Regional Weather Roundup
Issued by NWS Burlington, VT

Home | Current Version | Previous Version | Text Only | Print | Product List | Glossary On
Versions: 1 2 3 4 5 6 7 8 9 10 11 12 13 14 15 16 17 18 19 20 21 22 23 24 25 26 27 28 29 30 31 32 33 34 35 36 37 38 39 40 41 42 43 44 45 46 47 48 49 50
200
ASUS41 KBTV 241310
RWRBTV
VERMONT REGIONAL WEATHER ROUNDUP
NATIONAL WEATHER SERVICE BURLINGTON VT
800 AM EST TUE JAN 24 2017

NOTE: "FAIR" INDICATES FEW OR NO CLOUDS BELOW 12,000 FEET WITH NO
SIGNIFICANT WEATHER AND/OR OBSTRUCTIONS TO VISIBILITY.

* THESE REPORTS ARE NOT UNDER NWS QUALITY CONTROL AND/OR DO NOT
  REPORT WEATHER SUCH AS PRECIPITATION AND FOG.

VTZ001>019-241400-
_____VERMONT_____


CITY           SKY/WX    TMP DP  RH WIND       PRES   REMARKS
BURLINGTON     SLEET     31  29  92 N15       29.65F VSB 1   WCI  20
MONTPELIER     LGT SNOW  30  30 100 NE7       29.64F FOG     WCI  23
MORRISVILLE    LGT SNOW  32  31  96 NE5       29.66F VSB 3/4 WCI  27
ST. JOHNSBURY*   N/A     30  28  92 MISG      29.63F
LYNDONVILLE*     N/A    N/A N/A N/A MISG        N/A
MIDDLEBURY*    LGT SNOW  30  30 100 N3        29.61S
RUTLAND*       LGT SNOW  32  30  92 CALM      29.59R FOG
SPRINGFIELD    LGT SNOW  31  27  85 CALM      29.63S FOG
HIGHGATE*      LGT SNOW  30  28  94 N7        29.70F WCI  23
NEWPORT*       LGT SNOW  32  30  94 N3        29.68F
BENNINGTON     CLOUDY    35  25  66 NE6       29.50S WCI  30

_____LAKE CHAMPLAIN_____


CITY           SKY/WX    TMP DP  RH WIND       PRES   REMARKS

$$

NYZ007-026>031-035-052-083-087-241400-
_____NORTHERN NEW YORK_____


CITY           SKY/WX    TMP DP  RH WIND       PRES   REMARKS
PLATTSBURGH    FLURRIES  29  26  89 N18G29    29.70F WCI  16
SARANAC LAKE   LGT SNOW  27  24  89 E6        29.59S FOG     WCI  20
MASSENA        FRZ RAIN  28  23  81 NE18G28   29.75F WCI  15
OGDENSBURG*    MIX PCPN  28  26  91 NE12G21   29.71S WCI  18
WATERTOWN      FRZ RAIN  30  29  96 NE13      29.65F FOG     WCI  20
FT DRUM        FRZ RAIN  28  27  93 N10       29.63S WCI  19
ALBANY         LGTSLEET  33  30  88 N9        29.56S FOG     WCI  25
GLENS FALLS    LGT RAIN  34  30  85 N9        29.59S WCI  27

$$
NHZ002-005-011-241400-
_____NEW HAMPSHIRE_____


CITY           SKY/WX    TMP DP  RH WIND       PRES   REMARKS
LEBANON        CLOUDY    33  32  96 CALM      29.62S FOG
KEENE          FLURRIES  31  26  82 N10       29.58S WCI  22
MT WASHINGTON  SNOW      19  19 100 E83G93      N/A  VSB 0   WCI  -8
PLYMOUTH       LGT SNOW  32  30  91 SE7       29.62F WCI  26
WHITEFIELD     LGT SNOW  29  23  78 NE22G31   29.61F WCI  15

$$

_____REGIONAL QUEBEC LOCATIONS_____


CITY           SKY/WX    TMP DP  RH WIND       PRES   REMARKS
MONTREAL       FRZ RAIN  27  19  74 NE25G33   29.78F WCI  11
SHERBROOKE     LGT SNOW  28  25  86 NE12G26   29.73F WCI  18

_____REGIONAL ONTARIO LOCATIONS_____


CITY           SKY/WX    TMP DP  RH WIND       PRES   REMARKS
OTTAWA         FLURRIES  27  18  69 NE14G22   29.75F WCI  15

______KEY______
VSB  - VISIBILITY IN MILES
WCI  - WIND CHILL INDEX
HX   - HEAT INDEX
$$
NNNN




USA.gov is the U.S. government's official web portal to all federal, state and local government web resources and services.